Philip, SD

8:43 PM MDT on October 18, 2017 (GMT -0600)
Philip

Weather History for KPHP - July, 2014

Change the Weather History Date:

Tuesday, July 1, 2014

  Actual Average Record
Temperature  
Mean Temperature 61 °F 72 °F  
Max Temperature 73 °F 86 °F 106 °F (1974)
Min Temperature 49 °F 57 °F 42 °F (1959)
Degree Days  
Heating Degree Days 4 1  
Month to date heating degree days 4 1  
Since 1 June heating degree days 82 64  
Since 1 July heating degree days 4 1  
Cooling Degree Days 0 7  
Month to date cooling degree days 0 7  
Year to date cooling degree days 96 157  
Since 1 June cooling degree days 56 130  
Growing Degree Days 12 (Base 50)    
Moisture  
Dew Point 49 °F    
Average Humidity 69    
Maximum Humidity 93    
Minimum Humidity 44    
Precipitation  
Precipitation 0.00 in 0.08 in 1.42 in (1993)
Month to date precipitation 0.00 0.08  
Year to date precipitation 8.82 9.93  
Sea Level Pressure  
Sea Level Pressure 29.99 in    
Wind  
Wind Speed 18 mph (NW)    
Max Wind Speed 35 mph    
Max Gust Speed 43 mph    
Visibility 10 miles    
Events      
T = Trace of Precipitation, MM = Missing Value Source: NWS Daily Summary

Daily Weather History Graph

Daily Weather History Graph

Search for Another Location

Airport or City:

Trip Planner

Search our weather history database for the weather conditions in past years. The results will help you decide how hot, cold, wet, or windy it might be!

Date:

Astronomy

Jul. 01, 2014 Rise Set
Actual Time 5:07 AM MDT 8:33 PM MDT
Civil Twilight 4:31 AM MDT 9:09 PM MDT
Nautical Twilight 3:43 AM MDT 9:56 PM MDT
Astronomical Twilight 2:43 AM MDT 10:56 PM MDT
Moon 9:26 AM MDT (7/1) 10:47 PM MDT (7/1)
Length of Visible Light 16h 38m
Length of Day
15h 25m
Waxing Crescent, 17% of the Moon is Illuminated
Jul 1
Waxing Crescent
Jul 5
First Quarter
Jul 12
Full
Jul 18
Last Quarter
Jul 26
New

Hourly Weather History & Observations

Time (MDT) Temp. Dew Point Humidity Pressure Visibility Wind Dir Wind Speed Gust Speed Precip Events Conditions
12:55 AM 64.9 °F 48.9 °F 56% 29.81 in 10.0 mi WNW 19.6 mph 29.9 mph N/A   Clear
1:55 AM 64.0 °F 50.0 °F 60% 29.80 in 10.0 mi WNW 20.7 mph 32.2 mph N/A   Clear
2:55 AM 63.0 °F 50.0 °F 63% 29.83 in 10.0 mi WNW 16.1 mph - N/A   Clear
3:55 AM 63.0 °F 50.0 °F 63% 29.85 in 10.0 mi WNW 20.7 mph 27.6 mph N/A   Clear
4:55 AM 61.0 °F 51.1 °F 70% 29.89 in 10.0 mi WNW 15.0 mph 21.9 mph N/A   Scattered Clouds
5:55 AM 63.0 °F 53.1 °F 70% 29.90 in 10.0 mi WNW 21.9 mph 31.1 mph N/A   Overcast
6:55 AM 60.1 °F 50.0 °F 69% 29.94 in 10.0 mi NNW 18.4 mph 27.6 mph N/A   Overcast
7:55 AM 61.0 °F 51.1 °F 70% 29.97 in 10.0 mi NW 17.3 mph - N/A   Mostly Cloudy
8:55 AM 63.0 °F 48.9 °F 60% 29.97 in 10.0 mi NW 26.5 mph 36.8 mph N/A   Mostly Cloudy
9:55 AM 64.0 °F 48.9 °F 58% 29.98 in 10.0 mi NNW 29.9 mph 40.3 mph N/A   Mostly Cloudy
10:55 AM 66.9 °F 48.9 °F 52% 29.99 in 10.0 mi NNW 27.6 mph 38.0 mph N/A   Scattered Clouds
11:55 AM 68.0 °F 48.9 °F 50% 30.01 in 10.0 mi NW 26.5 mph 35.7 mph N/A   Mostly Cloudy
12:55 PM 68.0 °F 48.0 °F 49% 30.01 in 10.0 mi NW 25.3 mph 31.1 mph N/A   Mostly Cloudy
1:55 PM 69.1 °F 48.9 °F 49% 30.02 in 10.0 mi NNW 26.5 mph 34.5 mph N/A   Scattered Clouds
2:55 PM 71.1 °F 50.0 °F 47% 30.02 in 10.0 mi NNW 23.0 mph 31.1 mph N/A   Partly Cloudy
3:55 PM 71.1 °F 48.9 °F 45% 30.04 in 10.0 mi NNW 23.0 mph 31.1 mph N/A   Scattered Clouds
4:55 PM 72.0 °F 50.0 °F 46% 30.04 in 10.0 mi NNW 20.7 mph 29.9 mph N/A   Partly Cloudy
5:55 PM 69.1 °F 48.9 °F 49% 30.04 in 10.0 mi NNW 17.3 mph - N/A   Clear
6:55 PM 70.0 °F 46.9 °F 44% 30.06 in 10.0 mi North 17.3 mph - N/A   Clear
7:55 PM 64.9 °F 48.9 °F 56% 30.07 in 10.0 mi North 10.4 mph - N/A   Clear
8:55 PM 57.9 °F 48.9 °F 72% 30.10 in 10.0 mi NNW 9.2 mph - N/A   Clear
9:55 PM 54.0 °F 48.9 °F 83% 30.13 in 10.0 mi NW 6.9 mph - N/A   Clear
10:55 PM 52.0 °F 48.0 °F 86% 30.14 in 10.0 mi WNW 4.6 mph - N/A   Clear
11:55 PM 50.0 °F 48.0 °F 93% 30.14 in 10.0 mi WNW 4.6 mph - N/A   Clear